This is the latest recevied weather packets stored in our database for station/object EA7URS-13. If no packets are shown the sender has not sent any weather packets the latest 10 day(s).
| Time | Temp. | Humidity | Pressure | Rain* | Wind** | Luminosity | Snow |
|---|---|---|---|---|---|---|---|
| 1788120284 | 28.33° C | 46% | 1008.8 hPa | 0 mm | - | 0 W/m² | - |
| 1788119983 | 28.89° C | 44% | 1008.3 hPa | 0 mm | - | 0 W/m² | - |
| 1788119682 | 28.89° C | 44% | 1008.3 hPa | 0 mm | - | 0 W/m² | - |
| 1788119381 | 29.44° C | 41% | 1008.3 hPa | 0 mm | - | 0 W/m² | - |
| 1788119080 | 29.44° C | 41% | 1008.3 hPa | 0 mm | - | 0 W/m² | - |
| 1788118779 | 30° C | 39% | 1008.2 hPa | 0 mm | - | 0 W/m² | - |
| 1788118474 | 30° C | 39% | 1008.2 hPa | 0 mm | - | 0 W/m² | - |
| 1788118173 | 30° C | 38% | 1008.1 hPa | 0 mm | - | 0 W/m² | - |
| 1788117871 | 30° C | 38% | 1008.1 hPa | 0 mm | - | 0 W/m² | - |
| 1788117570 | 30.56° C | 37% | 1008 hPa | 0 mm | - | 0 W/m² | - |
| 1788117269 | 30.56° C | 37% | 1008 hPa | 0 mm | - | 0 W/m² | - |
| 1788116968 | 31.11° C | 36% | 1008.1 hPa | 0 mm | - | 2 W/m² | - |
| 1788116667 | 31.11° C | 36% | 1008.1 hPa | 0 mm | - | 2 W/m² | - |
| 1788116366 | 31.67° C | 35% | 1007.9 hPa | 0 mm | - | 5 W/m² | - |
| 1788116065 | 31.67° C | 35% | 1007.9 hPa | 0 mm | - | 5 W/m² | - |
| 1788115764 | 32.22° C | 33% | 1007.8 hPa | 0 mm | - | 11 W/m² | - |
| 1788115462 | 32.22° C | 33% | 1007.8 hPa | 0 mm | - | 11 W/m² | - |
| 1788115161 | 32.22° C | 32% | 1007.8 hPa | 0 mm | - | 18 W/m² | - |
| 1788114860 | 32.22° C | 32% | 1007.8 hPa | 0 mm | - | 18 W/m² | - |
| 1788114559 | 32.78° C | 31% | 1007.8 hPa | 0 mm | - | 24 W/m² | - |
| 1788114258 | 32.78° C | 31% | 1007.8 hPa | 0 mm | - | 24 W/m² | - |
| 1788113957 | 32.78° C | 31% | 1007.8 hPa | 0 mm | - | 29 W/m² | - |
| 1788113656 | 32.78° C | 31% | 1007.8 hPa | 0 mm | - | 29 W/m² | - |
| 1788113354 | 33.33° C | 31% | 1007.8 hPa | 0 mm | - | 34 W/m² | - |
| 1788113067 | 33.33° C | 31% | 1007.8 hPa | 0 mm | - | 34 W/m² | - |
* Rain latest hour (hover to see other rain measurements)
** Current wind speed in m/s (hover to see current wind gust speed)